User: anonymous   Login
Location: Unspecified
(0.0000°N, 0.0000°E)
Time: 01:20:21
(UTC+00:00)
Language:

deb Explorer IX - Orbit

View from above orbital plane
View from above orbital plane
View from above satellite
View from above satellite

Ground track
Ground track

The orbit data is extracted from the following two-line orbital elements,

1    85U 61004C   16038.73745054 +.00000212 +00000-0 +70625-4 0  9996
2    85 038.7741 190.1272 0413937 013.4928 347.6507 14.14827994705048
Epoch (UTC): 07 February 2016 17:41:55
Eccentricity: 0.0413937
inclination: 38.7741°
perigee height: 544 km
apogee height: 1142 km
right ascension of ascending node: 190.1272°
argument of perigee: 13.4928°
revolutions per day: 14.14827994
mean anomaly at epoch: 347.6507°
orbit number at epoch: 70504

The dashed part of the orbit path shows where the satellite is in the earth's shadow,  

DLR